Regional Weather Roundup
Issued by NWS

Home | Current Version | Previous Version | Text Only | Print | Product List | Glossary Off
Versions: 1 2 3 4 5 6 7 8 9 10 11 12 13 14 15 16 17 18 19 20 21 22 23 24 25 26 27 28 29 30 31 32 33 34 35 36 37 38 39 40 41 42 43 44 45 46 47 48 49 50

000
ASUS45 KCYS 282010
RWRWY

WYOMING REGIONAL WEATHER ROUNDUP
NATIONAL WEATHER SERVICE CHEYENNE WY
200 PM MDT THU APR 28 2016

NOTE:  "FAIR" INDICATES FEW OR NO CLOUDS BELOW 12,000 FEET
WITH NO SIGNIFICANT WEATHER AND/OR OBSTRUCTIONS TO VISIBILITY.

WYZ001-282100-
YELLOWSTONE NATIONAL PARK

CITY           SKY/WX    TMP DP  RH WIND       PRES   REMARKS
LK YELLOWSTONE   N/A     37  24  59 CALM      29.89F
W YELLOWSTONE  NOT AVBL

$$
WYZ002>013-054>058-071-098>099-282100-
NORTHERN WYOMING

CITY           SKY/WX    TMP DP  RH WIND       PRES   REMARKS
JACKSON        PTSUNNY   48  21  34 N6        29.81S
CODY           CLOUDY    37  28  70 N14       29.99F WCI  29
GREYBULL       CLOUDY    44  29  55 SE5       29.99S
WORLAND        CLOUDY    39  30  70 SW6       30.01R WCI  35
SHERIDAN       CLOUDY    40  32  73 NE7       30.06S
BUFFALO        CLOUDY    35  29  78 N8        30.04S WCI  29
GILLETTE       CLOUDY    36  33  89 N13       30.04S WCI  27
HULETT         CLOUDY    37  32  81 NE7       30.05R WCI  32
NEWCASTLE      CLOUDY    37  28  70 CALM      30.02S

$$
WYZ014>020-022>026-101>103-282100-
CENTRAL WYOMING

CITY           SKY/WX    TMP DP  RH WIND       PRES   REMARKS
BIG PINEY      PTSUNNY   45  26  47 S13G22    29.86S
PINEDALE       CLOUDY    43  28  56 SW5G16    29.85R
DUBOIS         CLOUDY    32  27  80 SE15G23   29.92S WCI  22
LANDER         CLOUDY    35  28  75 NE7       29.97R WCI  29
RIVERTON       CLOUDY    38  28  67 NE9       29.98S WCI  31
CASPER         CLOUDY    35  26  69 NE9       29.98S WCI  28
DOUGLAS        CLOUDY    36  28  73 N7        30.01S WCI  30

$$
WYZ021-027>030-104>119-282100-
SOUTHERN WYOMING

CITY           SKY/WX    TMP DP  RH WIND       PRES   REMARKS
EVANSTON       CLOUDY    36  28  73 E23G32    29.83R WCI  24
KEMMERER       CLOUDY    36  30  80 E21G26    29.87S WCI  24
FORT BRIDGER   LGT SNOW  34  34 100 E21G28    29.90R WCI  22
ROCK SPRINGS   LGT SNOW  33  28  81 E23G31    29.88  WCI  21
DIXON          LGT RAIN  37  35  92 E5        29.85R WCI  34
RAWLINS        CLOUDY    34  28  79 E21G28    29.90R HAZE    WCI  22
SARATOGA       SNOW      32  32 100 CALM      29.88S VSB 1/2
LARAMIE        LGT SNOW  30  26  85 E10       29.91S VSB 1   WCI  21
CHEYENNE       LGT SNOW  34  31  88 E7        29.96S FOG     WCI  28
TORRINGTON     CLOUDY    44  26  49 NE7       29.98S
PINE BLUFFS    CLOUDY    37  32  81 NE6       29.99R WCI  33

$$



USA.gov is the U.S. government's official web portal to all federal, state and local government web resources and services.